When you browse on this site, cookies collect data to enhance your experience and personalize the content and advertising you see.
Visit our Privacy Policy to learn more. By continuing to use the site, you agree to this use of cookies and data.
  • In Czech Republic
  • List of Countries
  • For 7 days
  • Water Temperature
  • Weather Map
  • Weather Widgets
  • user-avatar
    Login

    Hourly Weather Escuintla

    Today, 22 September, Sunday

    Time Temperature Precipitation Wind Pressure Humidity
    00:00 +25°C° 0 mm 1 mps 730 mmHg 94%
    01:00 +24°C° 0.4 mm 1 mps 729 mmHg 93%
    02:00 +24°C° 0.4 mm 1 mps 729 mmHg 93%
    03:00 +24°C° 0.4 mm 1 mps 729 mmHg 93%
    04:00 +24°C° 0.3 mm 1 mps 729 mmHg 93%
    05:00 +24°C° 0.3 mm 1 mps 729 mmHg 92%
    06:00 +24°C° 0 mm 1 mps 729 mmHg 93%
    07:00 +25°C° 0.4 mm 1 mps 730 mmHg 90%
    08:00 +27°C° 0.4 mm 1 mps 730 mmHg 86%
    09:00 +28°C° 0.4 mm 1 mps 731 mmHg 83%
    10:00 +29°C° 1 mm 1 mps 730 mmHg 83%
    11:00 +29°C° 1 mm 1 mps 729 mmHg 84%
    12:00 +29°C° 1 mm 1 mps 729 mmHg 85%
    13:00 +29°C° 1.9 mm 1 mps 728 mmHg 87%
    14:00 +28°C° 1.9 mm 1 mps 728 mmHg 90%
    15:00 +28°C° 1.9 mm 1 mps 727 mmHg 92%
    16:00 +27°C° 1.1 mm 1 mps 728 mmHg 93%
    17:00 +25°C° 1.1 mm 0 mps 728 mmHg 94%
    18:00 +24°C° 1.1 mm 0 mps 728 mmHg 96%
    19:00 +24°C° 0.2 mm 0 mps 729 mmHg 95%
    20:00 +25°C° 0.2 mm 1 mps 729 mmHg 95%
    21:00 +25°C° 0.2 mm 1 mps 730 mmHg 95%
    22:00 +25°C° 0.3 mm 1 mps 730 mmHg 94%
    23:00 +25°C° 0.3 mm 1 mps 730 mmHg 94%

    Tomorrow, 23 September, Monday

    Time Temperature Precipitation Wind Pressure Humidity
    00:00 +25°C° 0.3 mm 1 mps 730 mmHg 94%
    01:00 +25°C° 0.6 mm 1 mps 729 mmHg 94%
    02:00 +25°C° 0.6 mm 1 mps 729 mmHg 93%
    03:00 +25°C° 0.6 mm 1 mps 729 mmHg 93%
    04:00 +25°C° 0.7 mm 1 mps 729 mmHg 94%
    05:00 +24°C° 0.7 mm 1 mps 729 mmHg 94%
    06:00 +24°C° 0.7 mm 1 mps 729 mmHg 94%
    07:00 +25°C° 0.4 mm 1 mps 729 mmHg 94%
    08:00 +26°C° 0.4 mm 1 mps 730 mmHg 93%
    09:00 +26°C° 0.4 mm 1 mps 730 mmHg 92%
    10:00 +27°C° 0.2 mm 1 mps 730 mmHg 88%
    11:00 +28°C° 0.2 mm 1 mps 729 mmHg 84%
    12:00 +29°C° 0.2 mm 1 mps 729 mmHg 80%
    13:00 +29°C° 0.6 mm 1 mps 728 mmHg 83%
    14:00 +29°C° 0.6 mm 1 mps 728 mmHg 86%
    15:00 +28°C° 0.6 mm 1 mps 728 mmHg 89%
    16:00 +27°C° 0.3 mm 1 mps 727 mmHg 92%
    17:00 +27°C° 0.3 mm 1 mps 727 mmHg 94%
    18:00 +26°C° 0.3 mm 1 mps 727 mmHg 97%
    19:00 +26°C° 0.1 mm 1 mps 728 mmHg 96%
    20:00 +24°C° 0.1 mm 0 mps 729 mmHg 96%
    21:00 +23°C° 0.1 mm 0 mps 729 mmHg 96%
    22:00 +23°C° 0 mm 0 mps 729 mmHg 96%
    23:00 +23°C° 0 mm 0 mps 729 mmHg 95%

    Day after tomorrow, 24 September, Tuesday

    Time Temperature Precipitation Wind Pressure Humidity
    00:00 +23°C° 0 mm 0 mps 729 mmHg 95%
    01:00 +25°C° 0 mm 1 mps 728 mmHg 94%
    02:00 +25°C° 0 mm 1 mps 728 mmHg 94%
    03:00 +24°C° 0 mm 1 mps 728 mmHg 93%
    04:00 +24°C° 0 mm 1 mps 728 mmHg 93%
    05:00 +24°C° 0 mm 1 mps 728 mmHg 92%
    06:00 +24°C° 0 mm 1 mps 728 mmHg 91%
    07:00 +26°C° 0 mm 1 mps 729 mmHg 86%
    08:00 +28°C° 0 mm 1 mps 729 mmHg 80%
    09:00 +30°C° 0 mm 1 mps 730 mmHg 75%
    10:00 +30°C° 0.8 mm 1 mps 729 mmHg 77%
    11:00 +30°C° 0.8 mm 1 mps 729 mmHg 80%
    12:00 +30°C° 0.8 mm 2 mps 728 mmHg 83%
    13:00 +30°C° 1 mm 2 mps 728 mmHg 83%
    14:00 +30°C° 1 mm 1 mps 727 mmHg 83%
    15:00 +30°C° 1 mm 1 mps 726 mmHg 84%
    16:00 +29°C° 0.5 mm 1 mps 727 mmHg 88%
    17:00 +28°C° 0.5 mm 1 mps 727 mmHg 92%
    18:00 +27°C° 0.5 mm 1 mps 727 mmHg 96%
    19:00 +26°C° 0.1 mm 1 mps 728 mmHg 96%
    20:00 +26°C° 0.1 mm 1 mps 728 mmHg 96%
    21:00 +24°C° 0.1 mm 0 mps 729 mmHg 96%
    22:00 +24°C° 0.1 mm 0 mps 729 mmHg 96%
    23:00 +23°C° 0.1 mm 0 mps 729 mmHg 97%

    25 September, Wednesday

    Time Temperature Precipitation Wind Pressure Humidity
    00:00 +23°C° 0.1 mm 0 mps 729 mmHg 97%
    01:00 +23°C° 0.2 mm 0 mps 728 mmHg 97%
    02:00 +25°C° 0.2 mm 1 mps 728 mmHg 97%
    03:00 +25°C° 0.2 mm 1 mps 728 mmHg 97%
    04:00 +25°C° 0 mm 1 mps 728 mmHg 96%
    05:00 +25°C° 0 mm 1 mps 728 mmHg 96%
    06:00 +24°C° 0 mm 1 mps 728 mmHg 95%
    07:00 +26°C° 0.1 mm 1 mps 729 mmHg 91%
    08:00 +28°C° 0.1 mm 1 mps 729 mmHg 87%
    09:00 +29°C° 0.1 mm 1 mps 730 mmHg 83%
    10:00 +29°C° 1.6 mm 1 mps 729 mmHg 85%
    11:00 +29°C° 1.6 mm 2 mps 729 mmHg 88%
    12:00 +29°C° 1.6 mm 2 mps 728 mmHg 90%
    13:00 +28°C° 2 mm 2 mps 728 mmHg 91%
    14:00 +28°C° 2 mm 2 mps 727 mmHg 93%
    15:00 +27°C° 2 mm 2 mps 727 mmHg 94%
    16:00 +27°C° 1 mm 1 mps 727 mmHg 95%
    17:00 +26°C° 1 mm 1 mps 727 mmHg 96%
    18:00 +26°C° 1 mm 1 mps 727 mmHg 97%
    19:00 +26°C° 0.1 mm 1 mps 728 mmHg 96%
    20:00 +25°C° 0.1 mm 1 mps 728 mmHg 95%
    21:00 +23°C° 0.1 mm 0 mps 729 mmHg 95%
    22:00 +23°C° 0 mm 0 mps 728 mmHg 95%
    23:00 +23°C° 0 mm 0 mps 728 mmHg 94%

    26 September, Thursday

    Time Temperature Precipitation Wind Pressure Humidity
    00:00 +23°C° 0 mm 0 mps 728 mmHg 94%
    01:00 +25°C° 0 mm 1 mps 728 mmHg 94%
    02:00 +24°C° 0 mm 1 mps 727 mmHg 94%
    03:00 +24°C° 0 mm 1 mps 727 mmHg 94%
    04:00 +24°C° 0 mm 1 mps 727 mmHg 93%
    05:00 +24°C° 0 mm 1 mps 727 mmHg 93%
    06:00 +24°C° 0 mm 1 mps 728 mmHg 92%
    07:00 +25°C° 0 mm 1 mps 728 mmHg 88%
    08:00 +27°C° 0 mm 1 mps 728 mmHg 83%
    09:00 +29°C° 0 mm 1 mps 729 mmHg 79%
    10:00 +29°C° 0.8 mm 1 mps 728 mmHg 80%
    11:00 +30°C° 0.8 mm 2 mps 728 mmHg 81%
    12:00 +30°C° 0.8 mm 2 mps 727 mmHg 81%
    13:00 +30°C° 2.3 mm 2 mps 726 mmHg 85%
    14:00 +29°C° 2.3 mm 2 mps 726 mmHg 88%
    15:00 +28°C° 2.3 mm 2 mps 725 mmHg 92%
    16:00 +27°C° 1.3 mm 2 mps 725 mmHg 93%
    17:00 +27°C° 1.3 mm 1 mps 726 mmHg 95%
    18:00 +26°C° 1.3 mm 1 mps 726 mmHg 96%
    19:00 +25°C° 0.4 mm 1 mps 727 mmHg 96%
    20:00 +25°C° 0.4 mm 1 mps 727 mmHg 96%
    21:00 +23°C° 0.4 mm 0 mps 728 mmHg 96%
    22:00 +23°C° 0.3 mm 0 mps 728 mmHg 96%
    23:00 +25°C° 0.3 mm 1 mps 727 mmHg 95%

    27 September, Friday

    Time Temperature Precipitation Wind Pressure Humidity
    00:00 +25°C° 0.3 mm 1 mps 727 mmHg 95%
    01:00 +25°C° 0 mm 1 mps 727 mmHg 94%
    02:00 +24°C° 0 mm 1 mps 727 mmHg 94%
    03:00 +24°C° 0 mm 1 mps 726 mmHg 93%
    04:00 +24°C° 0 mm 1 mps 726 mmHg 93%
    05:00 +24°C° 0 mm 1 mps 727 mmHg 92%
    06:00 +24°C° 0 mm 1 mps 727 mmHg 92%
    07:00 +26°C° 0 mm 1 mps 727 mmHg 88%
    08:00 +27°C° 0 mm 1 mps 728 mmHg 85%
    09:00 +28°C° 0 mm 1 mps 728 mmHg 81%
    10:00 +28°C° 0.7 mm 1 mps 728 mmHg 83%
    11:00 +29°C° 0.7 mm 1 mps 727 mmHg 85%
    12:00 +29°C° 0.7 mm 2 mps 727 mmHg 87%
    13:00 +28°C° 1.6 mm 2 mps 727 mmHg 89%
    14:00 +28°C° 1.6 mm 2 mps 726 mmHg 92%
    15:00 +27°C° 1.6 mm 1 mps 725 mmHg 95%
    16:00 +26°C° 0.6 mm 1 mps 726 mmHg 96%
    17:00 +26°C° 0.6 mm 1 mps 726 mmHg 97%
    18:00 +25°C° 0.6 mm 1 mps 726 mmHg 98%
    19:00 +25°C° 0.4 mm 1 mps 727 mmHg 98%
    20:00 +25°C° 0.4 mm 1 mps 727 mmHg 98%
    21:00 +25°C° 0.4 mm 1 mps 728 mmHg 98%
    22:00 +25°C° 0.7 mm 1 mps 728 mmHg 98%
    23:00 +25°C° 0.7 mm 1 mps 728 mmHg 98%
    Show more